Omaha Millard, NE

3:22 PM CDT on April 24, 2017 (GMT -0500)
Millard Municipal

Weather History for KMLE - January, 2013

Change the Weather History Date:

Tuesday, January 8, 2013

  Actual Average (KOFF) Record (KOFF)
Temperature  
Mean Temperature 30 °F -  
Max Temperature 41 °F 31 °F 68 °F (2003)
Min Temperature 19 °F 14 °F 1 °F (1999)
Degree Days  
Heating Degree Days 35    
Moisture  
Dew Point 25 °F    
Average Humidity 83    
Maximum Humidity 97    
Minimum Humidity 64    
Precipitation  
Precipitation 0.00 in - - ()
Sea Level Pressure  
Sea Level Pressure 29.94 in    
Wind  
Wind Speed 2 mph (SSW)    
Max Wind Speed 10 mph    
Max Gust Speed 20 mph    
Visibility 9 miles    
Events      
Averages and records for this station are not official NWS values.
T = Trace of Precipitation, MM = Missing Value Source: NWS Daily Summary

Daily Weather History Graph

Daily Weather History Graph

Search for Another Location

Airport or City:

Trip Planner

Search our weather history database for the weather conditions in past years. The results will help you decide how hot, cold, wet, or windy it might be!

Date:

Astronomy

Jan. 08, 2013 Rise Set
Actual Time 7:49 AM CST 5:13 PM CST
Civil Twilight 7:19 AM CST 5:44 PM CST
Nautical Twilight 6:44 AM CST 6:18 PM CST
Astronomical Twilight 6:11 AM CST 6:51 PM CST
Moon 4:23 AM CST (1/8) 2:16 PM CST (1/8)
Length of Visible Light 10h 25m
Length of Day
9h 23m
Waning Crescent, 13% of the Moon is Illuminated
Jan 8
Waning Crescent
Jan 11
New
Jan 18
First Quarter
Jan 26
Full
Feb 3
Last Quarter

Hourly Weather History & Observations

Time (CST) Temp. Windchill Dew Point Humidity Pressure Visibility Wind Dir Wind Speed Gust Speed Precip Events Conditions
12:15 AM 23.0 °F - 22.1 °F 96% 29.95 in 5.0 mi Calm Calm - N/A   Clear
12:35 AM 22.1 °F - 21.2 °F 96% 29.95 in 3.0 mi Calm Calm - N/A   Clear
12:55 AM 22.1 °F - 21.2 °F 96% 29.94 in 3.0 mi Calm Calm - N/A   Clear
1:15 AM 23.0 °F - 22.1 °F 96% 29.94 in 7.0 mi Calm Calm - N/A   Clear
1:35 AM 21.6 °F - 20.5 °F 96% 29.94 in 5.0 mi Calm Calm - N/A   Clear
1:55 AM 21.4 °F - 20.3 °F 96% 29.94 in 5.0 mi Calm Calm - N/A   Clear
2:15 AM 20.8 °F - 19.9 °F 96% 29.94 in 5.0 mi Calm Calm - N/A   Clear
2:35 AM 20.3 °F - 19.4 °F 96% 29.93 in 5.0 mi Calm Calm - N/A   Clear
2:55 AM 19.9 °F - 18.9 °F 96% 29.93 in 5.0 mi Calm Calm - N/A   Clear
3:15 AM 19.6 °F - 18.3 °F 95% 29.92 in 7.0 mi Calm Calm - N/A   Clear
3:35 AM 19.9 °F - 18.9 °F 96% 29.92 in 7.0 mi Calm Calm - N/A   Clear
3:55 AM 20.8 °F - 19.6 °F 95% 29.91 in 7.0 mi Calm Calm - N/A   Clear
4:15 AM 20.5 °F - 19.4 °F 96% 29.90 in 7.0 mi Calm Calm - N/A   Clear
4:35 AM 19.2 °F - 18.0 °F 95% 29.89 in 7.0 mi Calm Calm - N/A   Clear
4:55 AM 19.2 °F - 18.1 °F 96% 29.88 in 7.0 mi Calm Calm - N/A   Clear
5:15 AM 19.2 °F - 18.0 °F 95% 29.88 in 7.0 mi Calm Calm - N/A   Clear
5:35 AM 19.2 °F - 18.1 °F 96% 29.89 in 7.0 mi Calm Calm - N/A   Clear
5:55 AM 19.6 °F - 18.5 °F 96% 29.88 in 7.0 mi Calm Calm - N/A   Clear
6:15 AM 19.4 °F - 18.3 °F 96% 29.88 in 10.0 mi Calm Calm - N/A   Clear
6:35 AM 19.0 °F - 17.8 °F 95% 29.89 in 10.0 mi Calm Calm - N/A   Clear
6:55 AM 19.9 °F - 18.9 °F 96% 29.89 in 10.0 mi Calm Calm - N/A   Clear
7:35 AM 19.4 °F - 18.5 °F 96% 29.89 in 10.0 mi Calm Calm - N/A   Clear
8:15 AM 22.1 °F 15.9 °F 21.2 °F 96% 29.89 in 10.0 mi SE 4.6 mph - N/A   Clear
8:35 AM 23.2 °F 18.7 °F 22.3 °F 96% 29.90 in 10.0 mi SE 3.5 mph - N/A   Clear
8:55 AM 23.7 °F 16.6 °F 22.8 °F 96% 29.90 in 10.0 mi SE 5.8 mph - N/A   Clear
9:15 AM 24.3 °F 19.9 °F 23.4 °F 96% 29.90 in 10.0 mi SE 3.5 mph - N/A   Clear
9:35 AM 27.1 °F 20.7 °F 26.4 °F 97% 29.90 in 10.0 mi SE 5.8 mph - N/A   Clear
9:55 AM 29.5 °F - 28.8 °F 97% 29.90 in 10.0 mi Calm Calm - N/A   Clear
10:15 AM 32.5 °F 27.1 °F 29.7 °F 89% 29.90 in 10.0 mi South 5.8 mph - N/A   Clear
10:35 AM 35.8 °F 30.1 °F 29.8 °F 79% 29.89 in 10.0 mi South 6.9 mph - N/A   Clear
10:55 AM 37.2 °F 31.9 °F 29.7 °F 74% 29.88 in 10.0 mi South 6.9 mph - N/A   Clear
11:15 AM 39.0 °F 32.8 °F 29.7 °F 69% 29.87 in 10.0 mi South 9.2 mph 17.3 mph N/A   Clear
11:35 AM 39.4 °F 33.8 °F 29.3 °F 67% 29.86 in 10.0 mi SSW 8.1 mph - N/A   Clear
11:55 AM 40.1 °F 34.7 °F 29.8 °F 67% 29.86 in 10.0 mi SSW 8.1 mph - N/A   Clear
12:15 PM 40.5 °F 34.1 °F 29.7 °F 65% 29.85 in 10.0 mi SW 10.4 mph - N/A   Clear
12:35 PM 40.1 °F 34.7 °F 29.1 °F 65% 29.84 in 10.0 mi SSW 8.1 mph - N/A   Clear
12:55 PM 40.8 °F 34.5 °F 29.5 °F 64% 29.84 in 10.0 mi SSW 10.4 mph 19.6 mph N/A   Clear
1:15 PM 41.0 °F 35.8 °F 29.5 °F 64% 29.84 in 10.0 mi SW 8.1 mph 17.3 mph N/A   Clear
1:55 PM 41.0 °F 35.2 °F 29.8 °F 64% 29.85 in 10.0 mi SSW 9.2 mph 16.1 mph N/A   Clear
2:15 PM 41.0 °F 34.7 °F 30.2 °F 65% 29.85 in 10.0 mi SW 10.4 mph - N/A   Clear
2:35 PM 41.2 °F 38.2 °F 30.0 °F 65% 29.86 in 10.0 mi WSW 4.6 mph - N/A   Clear
3:15 PM 40.5 °F 35.8 °F 30.0 °F 66% 29.88 in 10.0 mi SW 6.9 mph - N/A   Clear
3:35 PM 40.6 °F 36.7 °F 30.2 °F 66% 29.89 in 10.0 mi SW 5.8 mph - N/A   Clear
3:55 PM 40.5 °F 34.6 °F 30.0 °F 66% 29.91 in 10.0 mi WSW 9.2 mph - N/A   Clear
4:15 PM 39.6 °F 35.4 °F 29.3 °F 67% 29.92 in 10.0 mi SW 5.8 mph - N/A   Clear
4:35 PM 39.0 °F 34.0 °F 29.1 °F 68% 29.94 in 10.0 mi West 6.9 mph - N/A   Clear
4:55 PM 37.9 °F 34.4 °F 29.1 °F 71% 29.93 in 10.0 mi WSW 4.6 mph - N/A   Clear
5:15 PM 37.2 °F 34.7 °F 29.1 °F 73% 29.94 in 10.0 mi West 3.5 mph - N/A   Clear
5:35 PM 36.9 °F 34.3 °F 29.3 °F 74% 29.95 in 10.0 mi West 3.5 mph - N/A   Clear
5:55 PM 36.5 °F 33.9 °F 29.3 °F 75% 29.95 in 10.0 mi West 3.5 mph - N/A   Clear
6:15 PM 36.5 °F - 29.3 °F 75% 29.96 in 10.0 mi Calm Calm - N/A   Clear
6:35 PM 36.5 °F - 29.3 °F 75% 29.98 in 10.0 mi Calm Calm - N/A   Scattered Clouds
6:55 PM 36.0 °F - 29.1 °F 76% 29.99 in 10.0 mi Calm Calm - N/A   Scattered Clouds
7:15 PM 36.0 °F - 29.1 °F 76% 30.00 in 10.0 mi Calm Calm - N/A   Clear
7:35 PM 35.6 °F - 28.9 °F 77% 30.02 in 10.0 mi Calm Calm - N/A   Clear
7:55 PM 35.6 °F - 28.8 °F 76% 30.03 in 10.0 mi Calm Calm - N/A   Clear
8:15 PM 35.1 °F - 28.8 °F 78% 30.04 in 10.0 mi Calm Calm - N/A   Clear
8:35 PM 34.5 °F - 28.6 °F 79% 30.05 in 10.0 mi Calm Calm - N/A   Clear
8:55 PM 34.9 °F - 28.9 °F 79% 30.06 in 10.0 mi Calm Calm - N/A   Clear
9:15 PM 34.7 °F - 28.9 °F 79% 30.07 in 10.0 mi Calm Calm - N/A   Scattered Clouds
9:35 PM 35.6 °F - 28.9 °F 77% 30.08 in 10.0 mi Calm Calm - N/A   Clear
9:55 PM 34.9 °F - 28.8 °F 78% 30.09 in 10.0 mi Calm Calm - N/A   Clear
10:15 PM 34.9 °F - 28.9 °F 79% 30.10 in 10.0 mi Calm Calm - N/A   Clear
10:35 PM 34.7 °F - 29.1 °F 80% 30.11 in 10.0 mi Calm Calm - N/A   Clear
11:15 PM 33.6 °F 30.6 °F 28.4 °F 81% 30.12 in 10.0 mi West 3.5 mph - N/A   Clear
11:55 PM 30.7 °F - 27.1 °F 86% 30.13 in 10.0 mi Calm Calm - N/A   Clear